Location: Unspecified
(0.0000°N, 0.0000°E)
Time: 22:21:40
(UTC+00:00)

Courier 1B Rocket - Pass Details

Date: 06 October 2020
Orbit: 921 x 1202 km, 28.2° (Epoch: 27 October)

Event Time Altitude Azimuth Distance (km) Brightness Sun altitude
Rises 11:18:18 0° 301° (WNW) 3,546 7.8 80.8°
Reaches altitude 10° 11:20:52 10° 301° (WNW) 2,615 7.3 81.3°
Maximum altitude 11:27:09 88° 30° (NNE) 954 7.7 82.5°
Drops below altitude 10° 11:33:49 10° 120° (ESE) 2,756 7.6 83.5°
Sets 11:36:34 0° 120° (ESE) 3,749 8.1 83.9°
